Regional Weather Roundup
Issued by NWS

Home | Current Version | Previous Version | Graphics & Text | Print | Product List | Glossary On
Versions: 1 2 3 4 5 6 7 8 9 10 11 12 13 14 15 16 17 18 19 20 21 22 23 24 25 26 27 28 29 30 31 32 33 34 35 36 37 38 39 40 41 42 43 44 45 46 47 48 49 50
000
ASUS43 KDTX 011510
RWRMI
MICHIGAN HOURLY REGIONAL WEATHER ROUNDUP
NATIONAL WEATHER SERVICE DETROIT/PONTIAC MI
1100 AM EDT SUN MAY 01 2016

NOTE: "FAIR" INDICATES FEW OR NO CLOUDS BELOW 12,000 FEET WITH NO
SIGNIFICANT WEATHER AND/OR OBSTRUCTION TO VISIBILITY.

MIZ047>049-052>055-059>063-066>070-074>076-081>083-011600-
SOUTHEAST LOWER MICHIGAN

CITY           SKY/WX    TMP DP  RH WIND       PRES   REMARKS
ADRIAN         CLOUDY    50  49  96 NE7       29.97R FOG
ALMA           CLOUDY    45  45  98 N9        30.03S FOG
ANN ARBOR      CLOUDY    49  48  97 NE6       29.97R FOG
BAD AXE        CLOUDY    45  42  91 NE8       30.04R
CARO           CLOUDY    46  44  92 NE9       30.00S
DETROIT CITY   CLOUDY    49  47  93 NE9       29.97S FOG
DETROIT        DRIZZLE   50  48  93 N6        29.97R FOG
FLINT          CLOUDY    50  45  83 NE8       30.00R HAZE
GROSSE ILE     CLOUDY    50  48  93 N6        29.95R FOG
HILLSDALE      CLOUDY    49  49 100 NE3       29.96S FOG
HOWELL         CLOUDY    46  46  99 N6        29.99R FOG

CITY           SKY/WX    TMP DP  RH WIND       PRES   REMARKS
JACKSON        CLOUDY    48  47  96 N5        29.98R FOG
LAMBERTVILLE   CLOUDY    51  50  95 CALM      29.96R FOG
LANSING        CLOUDY    46  45  96 N10       30.01R FOG
LAPEER         CLOUDY    46  44  95 NE6       30.00R
MASON          CLOUDY    46  45  96 N9        29.99R FOG
MONROE         CLOUDY    50  50 100 N8        29.96R FOG
MT. CLEMENS    CLOUDY    48  48 100 N9        29.96F FOG
PONTIAC        LGT RAIN  47  46  97 NE9       29.97R FOG
PORT HOPE        N/A     43  40  89 NE18      30.04R
PORT HURON     CLOUDY    45  45 100 N6        29.99R FOG
TRI CITIES     CLOUDY    47  43  86 NE18      30.03R FOG
MIDLAND        LGT RAIN  46  44  95 NE15G21   30.04S
TROY           CLOUDY    48  47  97 N8        29.99S FOG
SAGINAW HB     CLOUDY    45  43  93 N9        30.02R
$$
MIZ043>046-050>051-056>058-064>065-071>073-077>080-011600-
SOUTHWEST LOWER MICHIGAN

CITY           SKY/WX    TMP DP  RH WIND       PRES   REMARKS
BATTLE CREEK   CLOUDY    47  45  93 NE9       29.99R
BENTON HARBOR  CLOUDY    50  46  86 NE7       29.99R
BIG RAPIDS     CLOUDY    46  40  78 E9G17     30.04S
COLDWATER      CLOUDY    50  50 100 NE5       29.97R FOG
FREMONT        CLOUDY    46  44  95 NE12      30.03S
HOLLAND        CLOUDY    50  46  86 E7        30.00R
GRAND RAPIDS   DRIZZLE   49  46  90 NE12      30.00S
IONIA          CLOUDY    46  45  97 NE13      30.00S
KALAMAZOO      CLOUDY    48  45  89 NE7       29.98F
LUDINGTON      CLOUDY    47  40  77 NE9       30.06F
MARSHALL       CLOUDY    48  46  95 N5        29.97S FOG
MOUNT PLEASANT LGT RAIN  47  45  95 NE10G16   30.03S
MUSKEGON       CLOUDY    49  43  80 NE13G22   30.02R
SOUTH HAVEN    CLOUDY    48  47  95 E5        29.98S
$$
MIZ016>042-011600-
NORTHERN LOWER MICHIGAN

CITY           SKY/WX    TMP DP  RH WIND       PRES   REMARKS
ALPENA         LGT RAIN  46  42  86 E7        30.12R
BEAVER ISLAND  CLOUDY    50  33  51 E9G16     30.14R
BELLAIRE       FLURRIES  51  39  65 E6G20     30.11R
CADILLAC       DRIZZLE   46  40  81 NE12G18   30.05S
CHARLEVOIX     CLOUDY    51  34  52 E7        30.15R
FRANKFORT      CLOUDY    51  40  66 E12       30.09R
GAYLORD        LGT RAIN  45  39  79 NE8       30.10R
GRAYLING       LGT RAIN  46  43  87 NE10      30.09R
HARBOR SPRINGS CLOUDY    50  33  51 E8        30.13R
HOUGHTON LAKE  LGT RAIN  46  42  86 NE15      30.06S
MANISTEE       CLOUDY    48  37  66 E10       30.08S
OSCODA         LGT RAIN  44  42  91 NE13G20   30.08R
PELLSTON       CLOUDY    51  31  46 E12       30.13R
ROGERS CITY    DRIZZLE   43  36  76 CALM      30.15R
TRAVERSE CITY  CLOUDY    47  41  80 N7        30.09R
$$
MIZ007>008-015-011600-
EASTERN UPPER MICHIGAN

CITY           SKY/WX    TMP DP  RH WIND       PRES   REMARKS
KINROSS          N/A     54  30  40 E10G17    30.14R
MACKINAC ISLAN CLOUDY    49  32  52 E10G16    30.14R
NEWBERRY       CLOUDY    50  33  51 NE3       30.14S
S. S. MARIE    CLOUDY    53  31  42 NE9       30.14S
MUNISING         N/A     43  37  79 N10       30.17R
$$
MIZ004>006-011>014-085-011600-
CENTRAL UPPER MICHIGAN

CITY           SKY/WX    TMP DP  RH WIND       PRES   REMARKS
MANISTIQUE     CLOUDY    54  32  42 NE12      30.14R
ESCANABA       CLOUDY    52  34  50 NE7       30.14R
MENOMINEE      CLOUDY    48  32  53 NE17      30.13R
SAWYER-GWINN   SUNNY     45  36  70 N10       30.18S
$$
MIZ001>003-009>011-084-011600-
WESTERN UPPER MICHIGAN

CITY           SKY/WX    TMP DP  RH WIND       PRES   REMARKS
IRON MOUNTAIN  MOSUNNY   52  33  48 VRB7      30.13S
HOUGHTON       SUNNY     48  33  56 E10       30.21R
COPPER HARBOR    N/A     41  37  86 VRB5      30.24R
IRONWOOD         N/A     43  37  81 N3        30.19S
$$

ABBREVIATIONS USED IN REMARKS
   TC - TEMPERATURE IN CELSIUS
  WCI - WIND CHILL INDEX
   HX - HEAT INDEX
  VSB - VISIBILITY




USA.gov is the U.S. government's official web portal to all federal, state and local government web resources and services.